Change the Weather History Date:

Monday, November 17, 2014

  Actual Average Record
Temperature  
Mean Temperature 27 °F -  
Max Temperature 35 °F 47 °F 57 °F (2004)
Min Temperature 18 °F 37 °F 18 °F (2014)
Degree Days  
Heating Degree Days 38    
Moisture  
Dew Point 26 °F    
Average Humidity 84    
Maximum Humidity 96    
Minimum Humidity 62    
Precipitation  
Precipitation 0.27 in - - ()
Sea Level Pressure  
Sea Level Pressure 29.76 in    
Wind  
Wind Speed 11 mph (SW)    
Max Wind Speed 34 mph    
Max Gust Speed 44 mph    
Visibility 5 miles    
Events Rain , Snow    
Averages and records for this station are not official NWS values.
T = Trace of Precipitation, MM = Missing Value Source: NWS Daily Summary

Daily Weather History Graph

Daily Weather History Graph

Search for Another Location

Airport or City:

Trip Planner

Search our weather history database for the weather conditions in past years. The results will help you decide how hot, cold, wet, or windy it might be!

Date:

Astronomy

Nov. 17, 2014 Rise Set
Actual Time 7:17 AM EST 5:05 PM EST
Civil Twilight 6:47 AM EST 5:35 PM EST
Nautical Twilight 6:14 AM EST 6:08 PM EST
Astronomical Twilight 5:41 AM EST 6:41 PM EST
Moon 2:14 AM EST (11/17) 2:31 PM EST (11/17)
Length of Visible Light 10h 47m
Length of Day
9h 47m
Waning Crescent, 23% of the Moon is Illuminated
Nov 17
Waning Crescent
Nov 22
New
Nov 29
First Quarter
Dec 6
Full
Dec 14
Last Quarter

Hourly Weather History & Observations

Time (EST) Temp. Windchill Dew Point Humidity Pressure Visibility Wind Dir Wind Speed Gust Speed Precip Events Conditions
12:27 AM 33.1 °F 30.0 °F 30.9 °F 92% 29.89 in 1.8 mi SE 3.5 mph - 0.01 in Snow Light Snow
12:53 AM 33.1 °F 28.7 °F 30.9 °F 92% 29.89 in 1.2 mi SE 4.6 mph - 0.02 in Snow Light Snow
1:28 AM 33.1 °F 26.9 °F 30.9 °F 92% 29.86 in 2.0 mi SSE 6.9 mph - 0.01 in   Overcast
1:50 AM 33.8 °F 29.6 °F 30.2 °F 87% 29.84 in 2.5 mi SE 4.6 mph - 0.01 in   Overcast
1:53 AM 33.1 °F 28.7 °F 30.9 °F 92% 29.86 in 2.5 mi SE 4.6 mph - 0.02 in   Overcast
2:00 AM 33.1 °F 30.0 °F 32.0 °F 96% 29.84 in 3.0 mi SE 3.5 mph - N/A   Overcast
2:10 AM 34.0 °F 29.8 °F 32.0 °F 92% 29.84 in 3.0 mi SSE 4.6 mph - N/A   Overcast
2:53 AM 34.0 °F 31.0 °F 32.0 °F 92% 29.83 in 2.5 mi SSE 3.5 mph - 0.00 in Snow Light Snow
3:08 AM 34.0 °F 29.8 °F 30.9 °F 89% 29.81 in 3.0 mi SE 4.6 mph - 0.00 in   Overcast
3:53 AM 34.0 °F 31.0 °F 32.0 °F 92% 29.80 in 3.0 mi SE 3.5 mph - 0.01 in   Overcast
4:53 AM 34.0 °F 31.0 °F 32.0 °F 92% 29.76 in 2.5 mi SE 3.5 mph - 0.01 in Snow Light Snow
5:53 AM 33.1 °F 28.7 °F 30.9 °F 92% 29.78 in 1.8 mi South 4.6 mph - 0.02 in Snow Light Snow
6:41 AM 33.1 °F 27.7 °F 30.9 °F 92% 29.73 in 1.2 mi SSW 5.8 mph - 0.01 in Snow Light Snow
6:53 AM 33.1 °F 26.9 °F 30.9 °F 92% 29.74 in 1.5 mi SW 6.9 mph - 0.02 in Snow Light Snow
7:10 AM 33.1 °F 26.9 °F 30.9 °F 92% 29.72 in 2.0 mi SW 6.9 mph - 0.01 in Snow Light Snow
7:34 AM 33.1 °F 26.9 °F 30.9 °F 92% 29.71 in 2.0 mi SW 6.9 mph - 0.02 in Snow Light Snow
7:53 AM 33.1 °F 26.9 °F 30.9 °F 92% 29.72 in 1.2 mi SSW 6.9 mph - 0.03 in Snow Light Snow
8:49 AM 33.8 °F 30.8 °F 30.2 °F 87% 29.67 in 1.0 mi SW 3.5 mph - 0.04 in Snow Light Snow
8:53 AM 33.1 °F 30.0 °F 32.0 °F 96% 29.69 in 1.5 mi Variable 3.5 mph - 0.04 in Snow Light Snow
8:59 AM 34.0 °F 28.0 °F 33.1 °F 96% 29.67 in 3.0 mi WNW 6.9 mph - 0.01 in Snow Light Snow
9:18 AM 34.0 °F 28.0 °F 32.0 °F 92% 29.66 in 5.0 mi West 6.9 mph - 0.04 in Rain Light Rain
9:53 AM 34.0 °F 25.0 °F 32.0 °F 92% 29.68 in 5.0 mi WSW 12.7 mph - 0.06 in Rain Light Rain
10:16 AM 34.0 °F 23.8 °F 32.0 °F 92% 29.66 in 4.0 mi West 16.1 mph - 0.02 in   Overcast
10:34 AM 35.1 °F 24.5 °F 32.0 °F 89% 29.66 in 5.0 mi West 18.4 mph - 0.02 in   Overcast
10:53 AM 35.1 °F 23.0 °F 32.0 °F 89% 29.68 in 4.0 mi West 24.2 mph - 0.03 in   Overcast
11:46 AM 33.1 °F 20.9 °F 30.0 °F 89% 29.65 in 1.8 mi WSW 21.9 mph - 0.00 in Snow Light Snow
11:53 AM 33.1 °F 20.9 °F 30.0 °F 89% 29.66 in 0.8 mi WSW 21.9 mph - 0.00 in Snow Light Snow
12:33 PM 32.0 °F 20.8 °F 30.0 °F 92% 29.64 in 1.0 mi SW 17.3 mph - 0.01 in Snow Light Snow
12:53 PM 32.0 °F 20.1 °F 28.9 °F 88% 29.66 in 1.5 mi WSW 19.6 mph - 0.01 in Snow Light Snow
1:00 PM 32.0 °F 19.8 °F 28.9 °F 88% 29.64 in 2.0 mi WSW 20.7 mph - 0.00 in Snow Light Snow
1:11 PM 32.0 °F 19.8 °F 28.0 °F 85% 29.64 in 4.0 mi WSW 20.7 mph - 0.00 in Snow Light Snow
1:36 PM 32.0 °F 21.2 °F 27.0 °F 82% 29.65 in 6.0 mi WSW 16.1 mph - 0.00 in   Haze
1:53 PM 32.0 °F 19.8 °F 26.1 °F 79% 29.67 in 7.0 mi SW 20.7 mph 26.5 mph 0.00 in   Overcast
2:53 PM 30.0 °F 16.9 °F 23.0 °F 75% 29.70 in 9.0 mi WSW 21.9 mph - N/A   Overcast
3:53 PM 28.9 °F 16.1 °F 19.0 °F 67% 29.73 in 10.0 mi WSW 19.6 mph - N/A   Scattered Clouds
4:35 PM 26.1 °F 10.4 °F 17.1 °F 69% 29.75 in 6.0 mi WSW 26.5 mph 35.7 mph N/A   Haze
4:53 PM 25.0 °F 8.4 °F 16.0 °F 69% 29.79 in 10.0 mi WSW 28.8 mph 35.7 mph N/A   Mostly Cloudy
5:08 PM 24.1 °F 7.1 °F 15.1 °F 69% 29.78 in 9.0 mi SW 28.8 mph - N/A   Overcast
5:18 PM 24.1 °F 7.7 °F 14.0 °F 65% 29.78 in 10.0 mi SW 26.5 mph 34.5 mph N/A   Overcast
5:53 PM 23.0 °F 6.3 °F 14.0 °F 68% 29.81 in 9.0 mi SW 26.5 mph 33.4 mph N/A   Overcast
6:53 PM 21.9 °F 4.8 °F 12.9 °F 68% 29.85 in 10.0 mi SW 26.5 mph 36.8 mph N/A   Overcast
7:53 PM 21.9 °F 3.9 °F 12.0 °F 66% 29.86 in 10.0 mi SW 29.9 mph 38.0 mph N/A   Overcast
8:53 PM 19.9 °F 1.8 °F 10.0 °F 65% 29.88 in 10.0 mi SW 27.6 mph - N/A   Mostly Cloudy
9:53 PM 19.9 °F 2.2 °F 10.0 °F 65% 29.88 in 10.0 mi SW 26.5 mph 35.7 mph N/A   Scattered Clouds
10:01 PM 19.0 °F 1.0 °F 10.0 °F 68% 29.86 in 10.0 mi SW 26.5 mph 41.4 mph N/A   Mostly Cloudy
10:53 PM 19.0 °F -1.1 °F 8.1 °F 62% 29.90 in 9.0 mi SW 34.5 mph 43.7 mph N/A   Mostly Cloudy
11:53 PM 18.0 °F -1.4 °F 7.0 °F 62% 29.91 in 10.0 mi SW 29.9 mph 35.7 mph N/A   Mostly Cloudy